Hourly Weather Barranca de Upia

Today, 21 October, Wednesday

Time Temperature Precipitation Wind Pressure Humidity
00:00 +25°C° 0.6 mm 1 mps 739 mmHg 93%
01:00 +25°C° 0.6 mm 1 mps 739 mmHg 93%
02:00 +25°C° 0.8 mm 1 mps 739 mmHg 93%
03:00 +24°C° 0.8 mm 1 mps 738 mmHg 93%
04:00 +24°C° 0.8 mm 1 mps 738 mmHg 93%
05:00 +25°C° 0.3 mm 1 mps 739 mmHg 92%
06:00 +23°C° 0.3 mm 0 mps 740 mmHg 91%
07:00 +23°C° 0.3 mm 0 mps 741 mmHg 90%
08:00 +25°C° 0.1 mm 0 mps 741 mmHg 84%
09:00 +27°C° 0.1 mm 0 mps 741 mmHg 77%
10:00 +31°C° 0.1 mm 1 mps 741 mmHg 71%
11:00 +31°C° 0.7 mm 1 mps 741 mmHg 68%
12:00 +32°C° 0.7 mm 1 mps 740 mmHg 66%
13:00 +33°C° 0.7 mm 1 mps 739 mmHg 63%
14:00 +31°C° 0.4 mm 1 mps 738 mmHg 69%
15:00 +30°C° 0.4 mm 1 mps 738 mmHg 74%
16:00 +29°C° 0.4 mm 1 mps 737 mmHg 80%
17:00 +28°C° 0.5 mm 1 mps 738 mmHg 83%
18:00 +25°C° 0.5 mm 0 mps 738 mmHg 86%
19:00 +24°C° 0.5 mm 0 mps 739 mmHg 88%
20:00 +24°C° 0.9 mm 0 mps 739 mmHg 89%
21:00 +24°C° 0.9 mm 0 mps 740 mmHg 90%
22:00 +25°C° 0.9 mm 1 mps 740 mmHg 91%
23:00 +25°C° 0.3 mm 1 mps 740 mmHg 91%

Tomorrow, 22 October, Thursday

Time Temperature Precipitation Wind Pressure Humidity
00:00 +25°C° 0.3 mm 1 mps 739 mmHg 91%
01:00 +23°C° 0.3 mm 0 mps 739 mmHg 91%
02:00 +25°C° 0.3 mm 1 mps 739 mmHg 91%
03:00 +24°C° 0.3 mm 1 mps 738 mmHg 91%
04:00 +24°C° 0.3 mm 1 mps 738 mmHg 92%
05:00 +25°C° 0.1 mm 1 mps 739 mmHg 91%
06:00 +25°C° 0.1 mm 1 mps 740 mmHg 90%
07:00 +23°C° 0.1 mm 0 mps 740 mmHg 89%
08:00 +24°C° 0 mm 0 mps 741 mmHg 85%
09:00 +25°C° 0 mm 0 mps 741 mmHg 82%
10:00 +27°C° 0 mm 0 mps 741 mmHg 78%
11:00 +28°C° 0 mm 0 mps 740 mmHg 72%
12:00 +32°C° 0 mm 1 mps 739 mmHg 65%
13:00 +34°C° 0 mm 1 mps 738 mmHg 59%
14:00 +33°C° 0.4 mm 1 mps 738 mmHg 63%
15:00 +32°C° 0.4 mm 1 mps 738 mmHg 67%
16:00 +30°C° 0.4 mm 0 mps 737 mmHg 71%
17:00 +30°C° 0.9 mm 1 mps 738 mmHg 77%
18:00 +28°C° 0.9 mm 1 mps 738 mmHg 83%
19:00 +26°C° 0.9 mm 1 mps 739 mmHg 89%
20:00 +26°C° 0.4 mm 1 mps 740 mmHg 90%
21:00 +26°C° 0.4 mm 1 mps 740 mmHg 91%
22:00 +25°C° 0.4 mm 2 mps 740 mmHg 92%
23:00 +25°C° 0 mm 1 mps 740 mmHg 91%

Day after tomorrow, 23 October, Friday

Time Temperature Precipitation Wind Pressure Humidity
00:00 +25°C° 0 mm 1 mps 740 mmHg 90%
01:00 +25°C° 0 mm 1 mps 739 mmHg 90%
02:00 +24°C° 0 mm 1 mps 739 mmHg 90%
03:00 +22°C° 0 mm 0 mps 739 mmHg 90%
04:00 +22°C° 0 mm 0 mps 739 mmHg 90%
05:00 +23°C° 0 mm 0 mps 739 mmHg 90%
06:00 +23°C° 0 mm 0 mps 740 mmHg 89%
07:00 +24°C° 0 mm 0 mps 740 mmHg 88%
08:00 +26°C° 0 mm 0 mps 741 mmHg 82%
09:00 +29°C° 0 mm 1 mps 741 mmHg 75%
10:00 +31°C° 0 mm 1 mps 741 mmHg 69%
11:00 +32°C° 0.3 mm 1 mps 740 mmHg 68%
12:00 +32°C° 0.3 mm 1 mps 739 mmHg 68%
13:00 +32°C° 0.3 mm 1 mps 738 mmHg 67%
14:00 +31°C° 1.2 mm 1 mps 738 mmHg 73%
15:00 +30°C° 1.2 mm 1 mps 737 mmHg 79%
16:00 +29°C° 1.2 mm 1 mps 737 mmHg 85%
17:00 +28°C° 1 mm 1 mps 738 mmHg 87%
18:00 +25°C° 1 mm 0 mps 738 mmHg 89%
19:00 +24°C° 1 mm 0 mps 739 mmHg 91%
20:00 +24°C° 0 mm 0 mps 739 mmHg 91%
21:00 +26°C° 0 mm 1 mps 739 mmHg 91%
22:00 +25°C° 0 mm 1 mps 739 mmHg 91%
23:00 +25°C° 0 mm 1 mps 739 mmHg 91%

24 October, Saturday

Time Temperature Precipitation Wind Pressure Humidity
00:00 +25°C° 0 mm 1 mps 739 mmHg 90%
01:00 +25°C° 0 mm 1 mps 738 mmHg 90%
02:00 +24°C° 0 mm 1 mps 738 mmHg 90%
03:00 +24°C° 0 mm 1 mps 738 mmHg 90%
04:00 +24°C° 0 mm 1 mps 738 mmHg 90%
05:00 +23°C° 0 mm 0 mps 738 mmHg 88%
06:00 +23°C° 0 mm 0 mps 739 mmHg 87%
07:00 +24°C° 0 mm 0 mps 740 mmHg 85%
08:00 +26°C° 0 mm 0 mps 740 mmHg 79%
09:00 +30°C° 0 mm 1 mps 740 mmHg 73%
10:00 +31°C° 0 mm 1 mps 740 mmHg 67%
11:00 +32°C° 0.1 mm 1 mps 739 mmHg 66%
12:00 +32°C° 0.1 mm 2 mps 738 mmHg 65%
13:00 +34°C° 0.1 mm 2 mps 737 mmHg 63%
14:00 +32°C° 0.9 mm 1 mps 737 mmHg 67%
15:00 +32°C° 0.9 mm 1 mps 736 mmHg 70%
16:00 +29°C° 0.9 mm 0 mps 736 mmHg 74%
17:00 +28°C° 0.5 mm 0 mps 736 mmHg 78%
18:00 +26°C° 0.5 mm 0 mps 737 mmHg 83%
19:00 +25°C° 0.5 mm 0 mps 737 mmHg 88%
20:00 +26°C° 0.3 mm 1 mps 738 mmHg 89%
21:00 +26°C° 0.3 mm 1 mps 738 mmHg 90%
22:00 +25°C° 0.3 mm 1 mps 738 mmHg 91%
23:00 +25°C° 0.1 mm 1 mps 738 mmHg 91%

25 October, Sunday

Time Temperature Precipitation Wind Pressure Humidity
00:00 +25°C° 0.1 mm 1 mps 738 mmHg 91%
01:00 +24°C° 0.1 mm 1 mps 737 mmHg 91%
02:00 +24°C° 0 mm 1 mps 737 mmHg 90%
03:00 +24°C° 0 mm 1 mps 737 mmHg 89%
04:00 +24°C° 0 mm 1 mps 737 mmHg 88%
05:00 +24°C° 0 mm 1 mps 738 mmHg 86%
06:00 +25°C° 0 mm 1 mps 739 mmHg 84%
07:00 +26°C° 0 mm 1 mps 739 mmHg 82%
08:00 +28°C° 0 mm 1 mps 739 mmHg 75%
09:00 +30°C° 0 mm 2 mps 740 mmHg 68%
10:00 +32°C° 0 mm 2 mps 740 mmHg 62%
11:00 +32°C° 0 mm 2 mps 739 mmHg 60%
12:00 +34°C° 0 mm 2 mps 738 mmHg 59%
13:00 +35°C° 0 mm 3 mps 737 mmHg 58%
14:00 +34°C° 0.5 mm 2 mps 737 mmHg 63%
15:00 +32°C° 0.5 mm 1 mps 736 mmHg 68%
16:00 +32°C° 0.5 mm 1 mps 736 mmHg 73%
17:00 +30°C° 0.5 mm 1 mps 737 mmHg 78%
18:00 +29°C° 0.5 mm 1 mps 737 mmHg 82%
19:00 +27°C° 0.5 mm 1 mps 738 mmHg 87%
20:00 +26°C° 0.1 mm 1 mps 738 mmHg 88%
21:00 +26°C° 0.1 mm 1 mps 738 mmHg 89%
22:00 +26°C° 0.1 mm 1 mps 738 mmHg 91%
23:00 +25°C° 0 mm 1 mps 738 mmHg 90%

26 October, Monday

Time Temperature Precipitation Wind Pressure Humidity
00:00 +25°C° 0 mm 1 mps 738 mmHg 90%
01:00 +25°C° 0 mm 1 mps 738 mmHg 90%
02:00 +25°C° 0 mm 1 mps 737 mmHg 90%
03:00 +25°C° 0 mm 1 mps 737 mmHg 90%
04:00 +24°C° 0 mm 1 mps 737 mmHg 89%
05:00 +25°C° 0.1 mm 1 mps 738 mmHg 88%
06:00 +23°C° 0.1 mm 0 mps 738 mmHg 87%
07:00 +24°C° 0.1 mm 0 mps 739 mmHg 85%
08:00 +28°C° 0 mm 1 mps 739 mmHg 79%
09:00 +30°C° 0 mm 2 mps 739 mmHg 72%
10:00 +33°C° 0 mm 3 mps 739 mmHg 65%
11:00 +33°C° 0.1 mm 3 mps 738 mmHg 65%
12:00 +32°C° 0.1 mm 2 mps 737 mmHg 65%
13:00 +34°C° 0.1 mm 2 mps 737 mmHg 64%
14:00 +32°C° 1.4 mm 2 mps 736 mmHg 71%
15:00 +31°C° 1.4 mm 2 mps 736 mmHg 78%
16:00 +30°C° 1.4 mm 1 mps 735 mmHg 84%
17:00 +29°C° 0.3 mm 1 mps 736 mmHg 86%
18:00 +28°C° 0.3 mm 1 mps 737 mmHg 88%
19:00 +26°C° 0.3 mm 1 mps 737 mmHg 90%
20:00 +26°C° 0.5 mm 1 mps 738 mmHg 91%
21:00 +26°C° 0.5 mm 1 mps 738 mmHg 92%
22:00 +25°C° 0.5 mm 1 mps 738 mmHg 93%
23:00 +25°C° 0.1 mm 1 mps 738 mmHg 93%

27 October, Tuesday

Time Temperature Precipitation Wind Pressure Humidity
00:00 +25°C° 0.1 mm 1 mps 737 mmHg 93%
01:00 +25°C° 0.1 mm 1 mps 737 mmHg 93%
02:00 +24°C° 0 mm 1 mps 737 mmHg 92%
03:00 +24°C° 0 mm 1 mps 737 mmHg 92%
04:00 +24°C° 0 mm 1 mps 737 mmHg 92%
05:00 +23°C° 0 mm 0 mps 737 mmHg 90%
06:00 +23°C° 0 mm 0 mps 738 mmHg 88%
07:00 +24°C° 0 mm 0 mps 738 mmHg 86%
08:00 +28°C° 0 mm 1 mps 738 mmHg 78%
09:00 +30°C° 0 mm 2 mps 739 mmHg 70%
10:00 +33°C° 0 mm 3 mps 739 mmHg 63%
11:00 +33°C° 0.1 mm 3 mps 738 mmHg 62%
12:00 +34°C° 0.1 mm 2 mps 737 mmHg 61%
13:00 +34°C° 0.1 mm 2 mps 736 mmHg 60%
14:00 +34°C° 0.7 mm 2 mps 735 mmHg 65%
15:00 +32°C° 0.7 mm 1 mps 735 mmHg 70%
16:00 +32°C° 0.7 mm 1 mps 735 mmHg 76%
17:00 +30°C° 0.4 mm 1 mps 735 mmHg 79%
18:00 +28°C° 0.4 mm 1 mps 736 mmHg 83%
19:00 +27°C° 0.4 mm 1 mps 736 mmHg 87%
20:00 +27°C° 0.1 mm 1 mps 736 mmHg 88%
21:00 +26°C° 0.1 mm 1 mps 736 mmHg 89%
22:00 +26°C° 0.1 mm 1 mps 737 mmHg 90%
23:00 +25°C° 0.2 mm 1 mps 736 mmHg 91%
Show more